This demonstration page uses our WeatherBlox Daily Observations layout. Learn more.

Left ArrowRight Arrow

Hourly Observations for February 17, 2019

Temp ( °F °C ) Dew Point ( °F °C ) Humidity (%) Winds ( mph kmh ) Pressure ( in mb ) Visibility ( mi km ) Precip ( " mm )
6:30 am 06:30 Cloudy 27 -3 19 -7 74 74 ENE 8 13 29.91 1013 10 16 N/A
6:45 am 06:45 Cloudy 28 -2 19 -7 69 69 ENE 8 13 29.91 1013 10 16 N/A
7:45 am 07:45 Cloudy 27 -3 19 -7 74 74 E 9 15 29.86 1011 10 16 N/A
8:45 am 08:45 Cloudy 28 -2 19 -7 69 69 E 8 13 29.89 1012 10 16 N/A
9:45 am 09:45 Cloudy 28 -2 19 -7 69 69 E 12 19 29.86 1011 10 16 N/A
10:45 am 10:45 Cloudy 30 -1 21 -6 69 69 ESE 7 11 29.85 1011 10 16 N/A
11:45 am 11:45 Cloudy 30 -1 21 -6 69 69 ESE 7 11 29.86 1011 10 16 N/A
12:41 pm 12:41 Cloudy with Light Rain 28 -2 27 -3 93 93 ESE 5 7 29.84 1011 2 3 N/A
12:48 pm 12:48 Cloudy with Light Rain 28 -2 27 -3 93 93 ESE 5 7 29.84 1011 2 3 N/A
1:50 pm 13:50 Cloudy with Light Freezing Drizzle 30 -1 27 -3 86 86 E 5 7 29.81 1009 2 3 N/A
2:50 pm 14:50 Cloudy with Light Freezing Drizzle 30 -1 27 -3 86 86 Calm 29.79 1009 3 4 N/A
3:45 pm 15:45 Cloudy with Light Freezing Drizzle 30 -1 27 -3 86 86 Calm 29.81 1009 3 5 N/A
4:45 pm 16:45 Cloudy with Light Freezing Drizzle 30 -1 28 -2 93 93 Calm 29.78 1008 3 5 N/A
5:10 pm 17:10 Cloudy 30 -1 28 -2 93 93 Calm 29.78 1008 7 11 N/A
5:45 pm 17:45 Cloudy 30 -1 28 -2 93 93 W 6 9 29.82 1010 7 11 N/A
6:45 pm 18:45 Cloudy 30 -1 28 -2 93 93 W 5 7 29.85 1011 7 11 N/A
7:35 pm 19:35 Cloudy with Light Snow 30 -1 21 -6 69 69 W 8 13 29.87 1011 5 8 N/A
7:45 pm 19:45 Cloudy with Light Snow 30 -1 28 -2 93 93 W 7 11 29.87 1011 5 8 N/A
8:50 pm 20:50 Cloudy 32 0 28 -2 87 87 W 8 13 29.91 1013 7 11 N/A
9:45 pm 21:45 Cloudy 32 0 28 -2 87 87 W 8 13 29.92 1013 10 16 N/A

Powered by AerisWeather